Theta_e
281 280 280 280 280 280 280 280 279 279 279 278 278 278 278 278 279 278 278 278 279 278 278 278 278 278 279 278 278 278 279 278 278 280 279 279 279 280 280 280 280 280
280 281 281 281 281 281 281 281 280 280 279 278 278 278 278 278 278 278 278 278 278 278 278 278 278 278 278 278 278 277 277 277 277 280 278 278 278 279 279 279 279 280
279 279 279 279 279 279 279 279 279 278 278 278 277 278 279 278 277 277 277 278 277 277 277 277 277 278 278 278 278 277 277 277 276 277 277 277 278 278 278 278 279 279
278 278 278 278 278 278 277 277 277 277 277 277 277 277 278 278 277 277 277 278 276 276 276 276 276 276 277 277 277 277 277 277 277 277 276 276 276 277 277 278 278 278
278 278 278 278 278 277 277 278 278 278 277 277 277 277 277 277 277 277 277 276 276 276 276 276 276 276 276 276 276 276 276 276 276 276 276 276 276 276 277 277 276 276
277 278 278 278 278 278 278 278 277 277 277 277 277 277 277 277 277 276 277 276 276 276 276 276 276 275 275 275 275 275 275 275 275 275 275 275 275 276 276 276 275 275
278 278 278 278 277 277 277 276 276 277 276 276 276 276 276 276 276 276 276 276 276 276 275 275 275 275 276 275 275 275 275 275 275 275 274 275 275 275 275 275 275 275
276 275 275 275 275 276 277 276 276 276 276 276 276 276 276 276 275 276 275 275 275 275 275 274 274 274 274 274 274 274 274 276 275 274 274 274 274 274 274 275 275 274
275 275 275 275 275 275 275 275 275 275 275 275 275 275 275 275 274 274 275 274 274 274 274 274 274 274 274 274 274 274 274 274 275 274 274 274 274 274 274 274 274 274
275 274 274 274 275 274 274 274 274 275 275 275 275 275 274 274 274 274 274 273 273 273 273 273 273 273 273 273 274 274 274 274 274 274 274 274 274 274 274 274 274 274
274 274 274 274 274 274 274 274 274 274 274 274 274 274 274 273 273 273 273 273 273 272 272 272 273 273 273 273 273 273 273 273 273 273 273 273 274 274 275 274 274 274
274 274 274 274 274 274 274 274 274 274 273 273 274 273 273 273 272 272 272 272 272 272 272 272 272 272 272 272 272 272 273 273 273 273 273 274 274 274 274 274 274 274
274 275 274 274 274 274 274 274 273 273 273 272 273 272 272 271 271 271 271 271 271 271 271 271 271 271 271 271 272 272 272 273 273 273 273 274 274 274 274 274 274 274
274 274 274 274 274 274 273 272 272 271 271 271 270 270 270 270 270 270 270 270 270 270 270 270 270 270 270 270 271 272 272 272 272 272 272 272 273 273 273 273 273 274
274 274 274 273 273 272 271 271 270 270 269 269 269 269 269 269 269 269 268 268 269 269 269 269 269 269 269 270 271 272 272 272 272 272 272 271 271 272 272 272 272 272
273 273 272 272 271 270 269 268 268 268 268 267 267 267 267 267 267 267 267 267 266 267 267 267 267 268 269 273 275 273 272 272 272 272 272 271 271 271 271 271 271 272
271 271 270 269 269 268 266 266 267 265 264 264 264 264 265 265 266 266 265 265 265 265 265 266 266 267 271 273 275 276 274 273 272 272 272 271 271 270 270 270 271 271
270 269 267 267 266 265 265 263 263 263 262 263 262 263 263 263 264 264 264 264 264 264 264 264 265 268 271 273 274 275 276 273 272 271 271 271 271 270 270 270 270 270
267 265 265 264 264 263 263 262 261 262 262 262 262 262 262 262 263 263 263 263 263 263 263 263 263 267 270 273 274 275 275 274 272 271 270 270 270 270 269 269 268 268
265 264 264 263 263 262 262 261 261 261 261 260 261 262 262 261 261 262 262 262 262 262 262 262 263 266 270 273 274 274 275 274 271 271 270 269 269 269 268 268 267 267
265 263 262 262 262 261 260 260 260 259 261 261 260 261 261 260 260 260 260 260 261 261 261 261 262 268 271 272 273 274 274 274 270 269 269 268 268 268 268 268 268 268
263 262 261 261 262 260 259 260 260 259 259 260 259 260 258 259 260 258 260 259 260 260 260 260 261 267 269 271 272 273 274 270 268 268 267 267 267 268 268 268 268 268
263 261 261 260 260 259 258 259 260 259 259 258 258 259 259 259 258 259 259 259 259 259 259 259 260 264 269 270 271 273 271 268 268 267 267 267 267 267 268 268 268 268
262 260 260 259 258 257 257 259 258 258 257 257 258 258 258 258 258 258 258 258 259 258 259 259 260 263 268 270 271 271 271 268 267 267 267 267 267 268 268 268 268 270
260 259 259 258 257 258 257 257 257 257 257 256 257 256 257 257 258 257 257 258 258 258 261 261 260 261 266 268 270 271 270 268 268 267 267 267 267 267 268 268 268 269
259 258 258 257 258 257 256 256 256 256 256 256 256 256 257 257 257 257 257 257 258 258 258 259 259 259 261 268 270 271 272 269 268 267 267 267 267 267 267 267 268 268
Wind_Speed
7 7 8 8 7 6 6 7 6 6 6 5 6 5 6 4 5 6 5 6 7 7 7 7 7 7 7 6 6 5 5 5 5 5 6 6 6 6 7 7 6 5
7 7 7 7 6 6 6 6 5 6 5 4 4 4 4 4 5 5 6 6 6 6 5 6 6 6 6 6 5 6 6 5 6 4 6 6 5 5 6 6 5 5
7 7 7 7 7 6 5 4 4 4 5 3 3 4 4 3 4 4 4 5 6 6 7 7 7 8 8 8 7 7 7 7 8 6 5 5 5 4 5 5 5 5
6 6 6 5 5 5 4 5 4 3 3 5 4 3 3 3 4 5 5 5 6 6 5 5 5 5 5 6 5 6 6 5 5 5 6 4 4 4 6 5 5 5
6 5 4 5 4 4 5 6 6 6 6 4 5 5 6 7 6 6 6 6 5 5 5 5 4 5 5 6 5 6 5 6 5 5 6 7 5 5 5 5 7 7
4 4 4 5 5 6 7 6 4 4 4 5 5 4 5 5 6 6 7 8 7 7 6 5 6 5 5 5 5 4 5 6 5 5 6 6 7 5 5 5 6 8
5 5 5 5 5 5 5 4 3 4 4 3 4 6 5 6 6 6 6 6 7 7 8 8 9 10 8 8 7 8 7 6 7 7 8 8 7 8 4 5 6 7
4 4 4 4 5 5 5 5 5 5 4 5 5 5 5 5 5 5 4 5 4 5 4 4 4 4 5 5 6 7 7 5 6 7 7 8 7 9 8 7 8 9
4 4 4 4 4 4 4 3 3 3 2 3 3 3 3 3 3 3 3 3 3 4 4 4 4 4 4 4 5 5 7 7 6 7 8 8 9 9 9 8 9 9
3 3 3 3 3 2 2 2 2 1 1 2 1 2 2 2 3 3 3 3 3 4 4 4 5 5 4 4 5 6 7 8 7 7 7 8 8 9 9 9 9 11
3 2 3 2 2 1 1 1 1 1 2 3 2 3 3 3 3 3 3 4 5 5 5 5 5 5 5 5 5 5 6 7 7 7 8 8 9 9 9 9 10 10
2 2 2 0 0 1 1 1 2 3 3 3 4 4 4 4 4 5 5 5 5 5 5 5 5 5 5 6 6 5 6 7 7 8 8 9 9 9 9 9 9 11
2 1 0 0 0 0 1 2 3 3 4 4 4 4 4 5 4 4 4 4 5 4 5 5 6 5 6 6 6 6 7 8 9 9 9 9 9 10 10 10 10 10
2 1 1 0 1 1 2 2 3 3 3 3 3 3 3 4 5 5 5 4 5 4 5 5 5 5 5 5 6 7 8 8 9 10 10 10 10 10 9 9 10 10
2 1 1 1 1 1 2 3 3 3 2 2 2 3 3 3 4 5 5 5 4 5 5 5 5 6 5 6 8 9 8 9 9 10 10 11 11 10 9 10 9 10
3 1 2 1 1 2 2 2 2 2 2 2 2 2 2 3 3 4 3 5 6 5 4 5 5 4 8 15 14 10 10 9 9 10 10 10 10 10 10 8 8 9
3 2 1 1 1 1 1 1 3 2 2 2 3 3 3 4 4 5 4 5 5 6 6 6 5 6 14 16 16 18 13 12 12 12 12 12 12 12 12 12 11 11
3 2 1 1 1 2 2 3 2 3 3 3 3 3 4 3 4 4 5 5 5 5 6 6 6 10 16 17 18 18 16 13 12 11 11 11 12 12 12 12 13 12
2 1 1 1 2 2 2 2 3 3 4 4 4 3 3 4 6 6 6 5 6 7 7 7 6 12 17 18 18 18 19 16 11 11 12 11 12 13 13 12 12 12
2 1 1 1 1 2 2 3 3 4 3 3 3 4 4 4 4 5 5 6 6 8 8 8 8 12 18 19 19 20 19 17 11 12 11 12 12 12 12 12 13 12
2 1 1 1 1 2 3 3 3 3 3 3 3 4 5 5 6 6 5 5 6 7 8 9 7 16 18 19 19 20 21 18 11 11 10 11 11 12 13 13 13 12
2 1 0 1 1 2 3 3 3 3 4 4 3 3 3 3 4 3 6 6 6 7 8 10 8 16 18 19 20 20 22 12 10 11 11 11 11 12 13 12 12 12
2 1 1 1 1 3 3 3 4 4 4 3 5 4 5 4 4 4 5 6 8 7 9 10 8 12 18 20 20 21 17 9 10 9 11 11 13 14 13 13 12 13
2 1 1 1 2 3 3 2 2 3 3 3 4 6 6 5 5 6 5 5 7 8 7 11 11 12 18 20 21 21 18 12 10 8 10 12 13 13 12 12 13 21
2 2 2 1 1 2 2 3 3 3 3 3 3 4 6 5 6 7 7 5 6 8 12 13 11 12 17 19 21 20 16 10 9 9 8 8 11 12 12 13 12 15
2 2 1 0 1 2 2 2 3 3 3 4 4 4 6 5 6 6 9 8 6 8 8 8 11 11 11 21 20 21 21 12 9 8 10 12 10 10 10 10 10 11
Wind_Direction
84 81 84 79 75 73 66 62 53 61 53 43 46 24 26 3 6 18 16 19 20 20 14 12 10 13 12 13 15 18 23 18 7 359 1 355 350 353 347 342 343 342
78 80 80 81 78 71 65 65 64 64 55 50 40 32 17 21 10 20 14 15 17 18 12 13 12 11 10 12 10 13 11 14 8 357 360 354 341 342 336 332 328 323
77 75 73 75 80 75 72 65 69 60 60 45 38 37 20 19 12 12 18 18 17 11 11 8 7 6 5 5 6 9 7 2 359 352 354 342 333 331 319 316 317 321
75 83 86 87 87 87 83 76 62 61 58 43 34 24 30 15 19 16 17 18 21 12 11 7 5 355 2 359 0 3 355 353 339 338 339 334 333 325 320 313 307 305
100 96 95 90 83 79 69 58 45 36 33 27 19 19 18 13 11 11 9 8 14 6 4 2 357 358 359 359 0 353 346 340 329 338 335 329 325 331 320 322 317 313
82 85 79 76 64 62 54 52 44 37 28 24 17 18 17 12 11 7 3 2 1 358 354 356 356 359 360 356 351 349 336 336 328 333 326 320 317 317 315 313 309 310
83 76 67 68 65 58 64 54 39 37 33 20 11 20 11 9 10 3 1 358 354 353 352 348 350 347 352 350 347 341 340 332 330 332 326 320 317 313 310 306 304 302
92 83 77 63 63 41 40 28 17 20 17 15 22 357 13 1 357 351 351 345 347 334 333 331 327 330 325 335 328 327 324 323 321 319 313 310 312 311 316 316 311 308
88 64 57 50 53 34 29 14 1 360 20 32 9 349 346 347 335 336 329 331 329 321 324 327 326 322 318 317 313 312 312 312 311 310 310 310 312 308 311 311 310 307
79 59 69 53 51 29 20 348 353 344 11 37 20 352 351 331 336 331 335 331 330 325 329 327 325 321 318 312 308 310 308 307 307 304 300 300 298 302 306 306 302 304
82 62 66 42 24 14 354 350 2 20 27 19 23 6 358 349 347 354 344 345 343 337 332 333 326 322 320 313 307 300 297 301 303 302 300 297 295 294 296 298 296 291
73 66 66 32 338 329 1 24 37 30 26 13 16 359 355 356 352 353 348 338 338 331 328 325 327 323 318 314 309 310 306 302 301 300 298 298 297 296 295 295 295 295
94 98 174 205 249 16 49 44 40 23 23 11 2 360 350 351 348 343 340 335 326 328 329 331 326 321 318 314 316 313 310 306 307 305 302 301 298 297 298 295 293 293
145 200 177 147 82 73 68 43 36 24 20 2 360 1 1 349 344 339 331 330 321 335 329 328 323 321 317 318 312 311 310 308 307 306 303 300 297 294 293 292 294 294
163 152 112 98 84 82 51 30 22 20 7 359 5 8 359 338 343 333 325 330 333 329 330 326 322 319 326 318 316 313 310 306 307 303 301 298 297 295 293 295 293 294
144 131 123 123 88 55 47 17 14 10 357 8 19 4 346 340 333 325 330 332 329 325 326 321 314 319 309 311 314 313 312 308 304 301 300 301 301 302 299 296 290 291
133 137 119 111 84 68 33 23 13 2 13 19 11 359 348 346 329 335 343 328 327 324 322 319 315 308 310 312 313 312 311 307 306 305 303 303 302 302 303 306 307 306
137 140 123 96 65 27 20 10 7 4 12 7 357 356 348 337 339 339 329 328 322 320 314 312 309 309 310 311 311 311 311 308 306 302 302 300 299 298 299 302 304 304
134 125 114 69 38 24 13 3 11 3 4 357 356 344 333 347 340 335 329 330 323 318 315 310 303 308 307 310 311 313 313 312 304 302 298 297 297 298 298 299 300 299
122 108 72 47 29 19 13 7 12 7 350 339 336 340 344 334 333 329 326 322 320 314 309 307 302 305 308 311 314 314 314 313 305 304 299 298 299 299 297 294 293 293
128 111 74 40 22 21 11 7 5 346 347 345 348 337 337 330 327 324 317 315 310 306 302 302 299 306 310 314 315 315 314 315 308 305 299 296 294 292 290 289 288 289
140 123 108 56 29 11 15 354 355 349 339 337 333 321 300 303 299 301 305 307 302 300 301 297 298 308 311 314 314 315 315 314 309 299 296 292 292 294 292 289 287 285
139 126 105 62 33 13 0 347 345 335 335 330 326 318 316 314 304 302 300 300 301 299 299 297 296 307 311 313 315 315 316 302 298 293 293 293 292 294 291 288 287 284
130 116 86 52 28 2 337 325 320 309 303 322 319 317 313 306 306 302 291 291 294 296 295 298 299 307 311 312 312 312 310 306 300 286 279 286 289 290 291 287 286 288
126 98 81 50 4 317 314 307 308 298 297 301 289 290 292 302 302 299 295 287 281 286 296 298 295 302 307 307 308 308 308 297 289 284 275 269 288 289 283 281 273 273
105 93 76 37 301 303 295 285 288 301 299 306 302 293 297 301 295 292 294 291 288 287 287 287 293 294 297 302 305 305 306 301 290 285 282 279 270 270 279 270 259 257